Hourly Weather Luka-Bars'ka

Today, 17 May, Monday

Time Temperature Precipitation Wind Pressure Humidity
00:00 +14°C° 0.2 mm 1 mps 725 mmHg 87%
01:00 +14°C° 0.2 mm 1 mps 725 mmHg 88%
02:00 +14°C° 0.2 mm 1 mps 725 mmHg 89%
03:00 +13°C° 0.1 mm 1 mps 725 mmHg 90%
04:00 +13°C° 0.1 mm 2 mps 724 mmHg 91%
05:00 +13°C° 0.1 mm 2 mps 724 mmHg 93%
06:00 +13°C° 0 mm 3 mps 724 mmHg 89%
07:00 +13°C° 0 mm 3 mps 724 mmHg 86%
08:00 +14°C° 0 mm 4 mps 724 mmHg 83%
09:00 +15°C° 0.1 mm 4 mps 724 mmHg 78%
10:00 +17°C° 0.1 mm 3 mps 724 mmHg 74%
11:00 +19°C° 0.1 mm 3 mps 724 mmHg 70%
12:00 +19°C° 0.6 mm 3 mps 724 mmHg 69%
13:00 +19°C° 0.6 mm 2 mps 724 mmHg 68%
14:00 +20°C° 0.6 mm 1 mps 723 mmHg 68%
15:00 +19°C° 1.1 mm 1 mps 723 mmHg 72%
16:00 +19°C° 1.1 mm 1 mps 723 mmHg 76%
17:00 +18°C° 1.1 mm 1 mps 723 mmHg 80%
18:00 +16°C° 0.3 mm 1 mps 723 mmHg 83%
19:00 +15°C° 0.3 mm 1 mps 723 mmHg 85%
20:00 +13°C° 0.3 mm 0 mps 723 mmHg 88%
21:00 +12°C° 0 mm 0 mps 723 mmHg 88%
22:00 +12°C° 0 mm 0 mps 722 mmHg 89%
23:00 +11°C° 0 mm 0 mps 722 mmHg 89%

Tomorrow, 18 May, Tuesday

Time Temperature Precipitation Wind Pressure Humidity
00:00 +12°C° 0.1 mm 1 mps 722 mmHg 90%
01:00 +12°C° 0.1 mm 1 mps 722 mmHg 91%
02:00 +12°C° 0.1 mm 1 mps 722 mmHg 91%
03:00 +12°C° 0 mm 1 mps 722 mmHg 91%
04:00 +12°C° 0 mm 1 mps 722 mmHg 91%
05:00 +12°C° 0 mm 1 mps 721 mmHg 91%
06:00 +13°C° 0.1 mm 1 mps 722 mmHg 88%
07:00 +15°C° 0.1 mm 1 mps 722 mmHg 84%
08:00 +16°C° 0.1 mm 1 mps 722 mmHg 80%
09:00 +18°C° 0.6 mm 1 mps 722 mmHg 76%
10:00 +18°C° 0.6 mm 2 mps 722 mmHg 72%
11:00 +19°C° 0.6 mm 2 mps 722 mmHg 69%
12:00 +17°C° 1.2 mm 2 mps 722 mmHg 74%
13:00 +16°C° 1.2 mm 2 mps 722 mmHg 80%
14:00 +15°C° 1.2 mm 2 mps 722 mmHg 86%
15:00 +14°C° 0.7 mm 3 mps 722 mmHg 87%
16:00 +14°C° 0.7 mm 3 mps 722 mmHg 87%
17:00 +14°C° 0.7 mm 3 mps 722 mmHg 87%
18:00 +13°C° 0.7 mm 4 mps 722 mmHg 90%
19:00 +13°C° 0.7 mm 5 mps 722 mmHg 92%
20:00 +11°C° 0.7 mm 6 mps 722 mmHg 94%
21:00 +11°C° 1.2 mm 7 mps 722 mmHg 94%
22:00 +11°C° 1.2 mm 8 mps 722 mmHg 94%
23:00 +10°C° 1.2 mm 9 mps 723 mmHg 94%

Day after tomorrow, 19 May, Wednesday

Time Temperature Precipitation Wind Pressure Humidity
00:00 +10°C° 2 mm 9 mps 723 mmHg 95%
01:00 +8°C° 2 mm 9 mps 723 mmHg 95%
02:00 +8°C° 2 mm 9 mps 723 mmHg 95%
03:00 +8°C° 2.8 mm 9 mps 723 mmHg 95%
04:00 +8°C° 2.8 mm 9 mps 723 mmHg 95%
05:00 +8°C° 2.8 mm 10 mps 723 mmHg 95%
06:00 +8°C° 0.5 mm 9 mps 723 mmHg 94%
07:00 +8°C° 0.5 mm 9 mps 724 mmHg 93%
08:00 +8°C° 0.5 mm 9 mps 724 mmHg 92%
09:00 +10°C° 0.1 mm 9 mps 725 mmHg 88%
10:00 +11°C° 0.1 mm 9 mps 725 mmHg 84%
11:00 +12°C° 0.1 mm 9 mps 725 mmHg 80%
12:00 +12°C° 0.1 mm 8 mps 726 mmHg 77%
13:00 +13°C° 0.1 mm 8 mps 726 mmHg 75%
14:00 +15°C° 0.1 mm 8 mps 726 mmHg 72%
15:00 +14°C° 0.3 mm 7 mps 726 mmHg 74%
16:00 +14°C° 0.3 mm 6 mps 727 mmHg 75%
17:00 +14°C° 0.3 mm 6 mps 727 mmHg 77%
18:00 +13°C° 0.1 mm 5 mps 727 mmHg 81%
19:00 +12°C° 0.1 mm 4 mps 727 mmHg 86%
20:00 +10°C° 0.1 mm 3 mps 727 mmHg 90%
21:00 +10°C° 0 mm 3 mps 728 mmHg 91%
22:00 +9°C° 0 mm 3 mps 728 mmHg 92%
23:00 +9°C° 0 mm 3 mps 728 mmHg 93%

20 May, Thursday

Time Temperature Precipitation Wind Pressure Humidity
00:00 +8°C° 0 mm 2 mps 728 mmHg 93%
01:00 +8°C° 0 mm 2 mps 728 mmHg 93%
02:00 +8°C° 0 mm 2 mps 728 mmHg 93%
03:00 +8°C° 0 mm 2 mps 728 mmHg 93%
04:00 +8°C° 0 mm 2 mps 728 mmHg 92%
05:00 +9°C° 0 mm 1 mps 728 mmHg 92%
06:00 +10°C° 0 mm 1 mps 728 mmHg 88%
07:00 +11°C° 0 mm 1 mps 729 mmHg 85%
08:00 +12°C° 0 mm 1 mps 729 mmHg 82%
09:00 +13°C° 0.2 mm 1 mps 729 mmHg 78%
10:00 +15°C° 0.2 mm 1 mps 729 mmHg 74%
11:00 +16°C° 0.2 mm 1 mps 729 mmHg 70%
12:00 +15°C° 0.9 mm 1 mps 729 mmHg 77%
13:00 +14°C° 0.9 mm 1 mps 729 mmHg 83%
14:00 +13°C° 0.9 mm 1 mps 729 mmHg 90%
15:00 +13°C° 0.2 mm 1 mps 729 mmHg 90%
16:00 +13°C° 0.2 mm 1 mps 729 mmHg 90%
17:00 +13°C° 0.2 mm 1 mps 729 mmHg 90%
18:00 +13°C° 0 mm 1 mps 729 mmHg 91%
19:00 +12°C° 0 mm 1 mps 729 mmHg 91%
20:00 +12°C° 0 mm 1 mps 729 mmHg 92%
21:00 +12°C° 0 mm 1 mps 730 mmHg 92%
22:00 +10°C° 0 mm 2 mps 730 mmHg 93%
23:00 +10°C° 0 mm 2 mps 730 mmHg 93%

21 May, Friday

Time Temperature Precipitation Wind Pressure Humidity
00:00 +10°C° 0.2 mm 2 mps 730 mmHg 94%
01:00 +10°C° 0.2 mm 2 mps 730 mmHg 95%
02:00 +9°C° 0.2 mm 2 mps 730 mmHg 96%
03:00 +9°C° 0.9 mm 2 mps 730 mmHg 97%
04:00 +9°C° 0.9 mm 2 mps 730 mmHg 97%
05:00 +9°C° 0.9 mm 2 mps 730 mmHg 98%
06:00 +9°C° 1.5 mm 2 mps 730 mmHg 98%
07:00 +9°C° 1.5 mm 2 mps 730 mmHg 98%
08:00 +10°C° 1.5 mm 3 mps 730 mmHg 98%
09:00 +10°C° 0.3 mm 3 mps 730 mmHg 97%
10:00 +10°C° 0.3 mm 2 mps 730 mmHg 97%
11:00 +10°C° 0.3 mm 2 mps 731 mmHg 96%
12:00 +10°C° 0.1 mm 3 mps 731 mmHg 96%
13:00 +10°C° 0.1 mm 3 mps 731 mmHg 95%
14:00 +11°C° 0.1 mm 3 mps 731 mmHg 95%
15:00 +11°C° 0 mm 3 mps 731 mmHg 94%
16:00 +11°C° 0 mm 3 mps 731 mmHg 93%
17:00 +11°C° 0 mm 3 mps 731 mmHg 92%
18:00 +10°C° 0 mm 2 mps 732 mmHg 93%
19:00 +10°C° 0 mm 2 mps 732 mmHg 94%
20:00 +9°C° 0 mm 2 mps 732 mmHg 94%
21:00 +9°C° 0 mm 2 mps 732 mmHg 94%
22:00 +9°C° 0 mm 2 mps 732 mmHg 93%
23:00 +9°C° 0 mm 2 mps 732 mmHg 92%

22 May, Saturday

Time Temperature Precipitation Wind Pressure Humidity
00:00 +9°C° 0 mm 2 mps 732 mmHg 92%
01:00 +9°C° 0 mm 2 mps 732 mmHg 92%
02:00 +8°C° 0 mm 2 mps 732 mmHg 92%
03:00 +8°C° 0 mm 2 mps 733 mmHg 93%
04:00 +8°C° 0 mm 2 mps 733 mmHg 93%
05:00 +8°C° 0 mm 2 mps 733 mmHg 94%
06:00 +9°C° 0 mm 3 mps 733 mmHg 90%
07:00 +11°C° 0 mm 4 mps 733 mmHg 87%
08:00 +12°C° 0 mm 4 mps 733 mmHg 83%
09:00 +13°C° 0 mm 4 mps 733 mmHg 78%
10:00 +14°C° 0 mm 4 mps 734 mmHg 74%
11:00 +15°C° 0 mm 4 mps 734 mmHg 69%
12:00 +15°C° 0 mm 4 mps 734 mmHg 70%
13:00 +17°C° 0 mm 4 mps 733 mmHg 71%
14:00 +17°C° 0 mm 4 mps 733 mmHg 72%
15:00 +17°C° 0 mm 3 mps 733 mmHg 74%
16:00 +17°C° 0 mm 3 mps 733 mmHg 76%
17:00 +17°C° 0 mm 3 mps 733 mmHg 78%
18:00 +16°C° 0 mm 3 mps 733 mmHg 83%
19:00 +14°C° 0 mm 3 mps 733 mmHg 87%
20:00 +13°C° 0 mm 3 mps 733 mmHg 91%
21:00 +12°C° 0 mm 3 mps 734 mmHg 92%
22:00 +12°C° 0 mm 3 mps 734 mmHg 93%
23:00 +12°C° 0 mm 2 mps 734 mmHg 94%
Show more

We Need Your Consent

Meteoprog and our Service Providers may store and access personal data such as cookies, device identifiers or other similar technologies on your device and process such data to personalise content and ads, as well as provide social media features and to analyse the traffic.

  • Store and/or access information on your device

    Cookies, device identifiers or other information can be stored or accessed on your device for the purposes indicated above.

  • Personalised ads and content, ad and content measurement, audience insights, and products development

    Ads and content can be personalised based on a profile. More data can be added to better personalise ads and content. Ad and content performance can be measured. Insights about the audience who saw the ads and content can be derived. Such data can be used to develop or improve user’s experience, systems and software.

By clicking ‘I Agree’ you will allow the use of indicated cookies, device identifiers, web beacons or other similar technologies. Your settings can be changed in the browser on your device.

For certain purposes, legitimate interests may be relied on, rather than consent. You can read more about this in our Privacy and Cookie Policy.